Flag for Australia Weather past 2 weeks in Samford, Queensland, Australia

68 °F

Passing clouds.

Feels Like: 68 °F
Forecast: 56 / 76 °F
Wind: 7 mph from East

Location: Brisbane Airport M. O

Current Time: Oct 10, 2015 at 7:26:51 PM

Latest Report: Oct 10, 2015 at 7:00 PM

Visibility: N/A

Pressure: 30.33 "Hg

Humidity: 60%

Dew point: 54 °F

Location of SamfordLocation

Historic Weather in Samford — Graph


Samford temperature yesterday

Maximum temperature yesterday: 75 °F (at 11:30 AM)
Minimum temperature yesterday: 64 °F (at 6:00 AM)
Average temperature yesterday: 69 °F

Past Weeks' High & Low Weather Summary

High84 °F (Oct 5, 12:30 PM)100% (Sep 30, 4:00 AM)30.48 "Hg (Sep 30, 4:00 AM)
Low52 °F (Sep 30, 5:30 AM)20% (Oct 6, 1:00 PM)30.01 "Hg (Sep 28, 3:30 PM)
Average66 °F72%30.27 "Hg
* Reported Sep 25 6:00 PM — Oct 10 6:00 PM, Samford, Weather by CustomWeather, © 2015

Note: Actual official high and low records may vary slightly from our data, if they occured in-between our weather recording intervals... More about our weather records


Samford weather history for previous 24 hours

Time TempWeatherWind HumidityBarometerVisibility
6:00 PM
Sat, Oct 10
70 °FPassing clouds.10 mph57%30.30 "HgN/A
5:30 PM70 °FPassing clouds.9 mph57%30.30 "HgN/A
5:00 PM72 °FClear.12 mph53%30.30 "Hg10 mi
4:30 PM72 °FSunny.9 mph53%30.30 "Hg10 mi
4:00 PM73 °FSunny.10 mph50%30.30 "Hg10 mi
3:00 PM75 °FSunny.10 mph44%30.30 "Hg10 mi
2:30 PM73 °FSunny.12 mph50%30.30 "Hg10 mi
2:00 PM73 °FSunny.12 mph44%30.33 "Hg10 mi
1:30 PM73 °FScattered clouds.8 mph41%30.33 "HgN/A
1:00 PM75 °FScattered clouds.12 mph39%30.33 "HgN/A
12:30 PM75 °FScattered clouds.9 mph44%30.36 "HgN/A
12:00 PM73 °FScattered clouds.10 mph44%30.36 "HgN/A
11:30 AM73 °FSunny.13 mph38%30.36 "Hg10 mi
11:00 AM73 °FScattered clouds.9 mph41%30.39 "HgN/A
10:30 AM73 °FScattered clouds.10 mph41%30.39 "HgN/A
10:00 AM73 °FScattered clouds.13 mph44%30.39 "HgN/A
9:30 AM73 °FScattered clouds.13 mph44%30.39 "HgN/A
9:00 AM75 °FPartly sunny.10 mph44%30.39 "HgN/A
8:30 AM72 °FScattered clouds.9 mph53%30.39 "HgN/A
8:00 AM72 °FScattered clouds.9 mph57%30.39 "HgN/A
7:00 AM68 °FPartly sunny.6 mph69%30.39 "HgN/A
6:30 AM66 °FPartly sunny.5 mph73%30.39 "HgN/A
6:00 AM64 °FPartly sunny.5 mph78%30.36 "HgN/A
5:00 AM64 °FSunny.5 mph78%30.36 "Hg10 mi
4:00 AM64 °FClear.3 mph78%30.33 "Hg10 mi
3:00 AM64 °FClear.7 mph73%30.33 "Hg10 mi
2:30 AM66 °FClear.8 mph68%30.33 "Hg10 mi
2:00 AM68 °FClear.8 mph56%30.36 "Hg10 mi
1:30 AM68 °FClear.7 mph56%30.36 "Hg10 mi
1:00 AM70 °FClear.6 mph43%30.36 "Hg10 mi
12:30 AM66 °FPassing clouds.8 mph68%30.39 "HgN/A
12:00 AM66 °FPassing clouds.5 mph68%30.39 "HgN/A
11:30 PM
Fri, Oct 9
66 °FClear.8 mph68%30.39 "Hg10 mi
11:00 PM68 °FPassing clouds.7 mph64%30.42 "HgN/A
10:30 PM66 °FPassing clouds.6 mph68%30.42 "HgN/A
10:00 PM66 °FClear.8 mph68%30.42 "Hg10 mi
9:00 PM68 °FPassing clouds.9 mph64%30.42 "HgN/A
8:00 PM68 °FPassing clouds.8 mph69%30.42 "HgN/A
7:00 PM68 °FPassing clouds.8 mph73%30.39 "HgN/A
Weather by CustomWeather, © 2015

See weather overviewHow to use our weather pages